IRIDIUM 46 [P]

Last updated on May 30, 2018, 12:19 a.m. UTC

1 24905U 97043C   18149.49644497  .00059131 -32071-6  41682-3 0  9996
2 24905  86.3862 103.6073 0285244 331.4217  27.1641 15.35296195 88442

Satellite is not in orbit.